User: anonymous   Login
Location: Unspecified
(0.0000°N, 0.0000°E)
Time: 23:16:50
(UTC+00:00)
Language:

SSETI-EXPRESS DEB - Orbit

View from above orbital plane
View from above orbital plane
View from above satellite
View from above satellite

Ground track
Ground track

The orbit data is extracted from the following two-line orbital elements,

1 28897U 05043H   18109.41458168 +.00000168 +00000-0 +40649-4 0  9994
2 28897 097.8972 263.7670 0014789 248.3901 136.8297 14.63979836657410
Epoch (UTC): 19 April 2018 09:56:59
Eccentricity: 0.0014789
inclination: 97.8972°
perigee height: 670 km
apogee height: 691 km
right ascension of ascending node: 263.7670°
argument of perigee: 248.3901°
revolutions per day: 14.63979836
mean anomaly at epoch: 136.8297°
orbit number at epoch: 65741

The dashed part of the orbit path shows where the satellite is in the earth's shadow,  

DLR